DW4604 Weather Reports


Display with metric or nautical units.
time (UTC)temp
F
wind
direction
speed
MPH
gust
MPH
rain 1hr
in
rain 24hr
in
rain mn
in
humidity
%
barometer
mb
20260502205936 54 0 0.0 0.0 0.00 0.00 0.00 63 1019.1
20260502205436 54 0 0.0 0.0 0.00 0.00 0.00 63 1019.1
20260502204937 54 0 0.0 0.0 0.00 0.00 0.00 63 1019.1
20260502204436 54 0 0.0 0.0 0.00 0.00 0.00 63 1019.2
20260502203936 54 0 0.0 0.0 0.00 0.00 0.00 63 1019.3
20260502203436 54 0 0.0 0.0 0.00 0.00 0.00 64 1019.3
20260502202937 54 0 0.0 0.0 0.00 0.00 0.00 64 1019.4
20260502202437 54 0 0.0 0.0 0.00 0.00 0.00 64 1019.4
20260502201938 54 0 0.0 0.0 0.00 0.00 0.00 64 1019.4
20260502201437 55 0 0.0 0.0 0.00 0.00 0.00 63 1019.4
20260502200937 55 0 0.0 0.0 0.00 0.00 0.00 63 1019.3
20260502200437 54 0 0.0 0.0 0.00 0.00 0.00 64 1019.3
20260502195938 55 0 0.0 0.0 0.00 0.00 0.00 63 1019.5
20260502195437 55 0 0.0 0.0 0.00 0.00 0.00 64 1019.5
20260502194437 55 0 0.0 0.0 0.00 0.00 0.00 63 1019.5
20260502193437 55 0 0.0 0.0 0.00 0.00 0.00 64 1019.6
20260502192938 55 0 0.0 0.0 0.00 0.00 0.00 63 1019.6
20260502192438 56 0 0.0 0.0 0.00 0.00 0.00 63 1019.6
20260502191938 56 0 0.0 0.0 0.00 0.00 0.00 62 1019.6
20260502191439 56 0 0.0 0.0 0.00 0.00 0.00 62 1019.6
20260502190938 57 0 0.0 0.0 0.00 0.00 0.00 61 1019.6
20260502190437 57 0 0.0 0.0 0.00 0.00 0.00 60 1019.6
20260502185937 57 0 0.0 0.0 0.00 0.00 0.00 59 1019.5
20260502185437 58 0 0.0 0.0 0.00 0.00 0.00 58 1019.5
20260502184937 58 0 0.0 0.0 0.00 0.00 0.00 58 1019.5
20260502184437 58 0 0.0 0.0 0.00 0.00 0.00 57 1019.4
20260502183938 58 0 0.0 0.0 0.00 0.00 0.00 57 1019.4
20260502183437 59 0 0.0 0.0 0.00 0.00 0.00 57 1019.4
20260502182938 59 0 0.0 0.0 0.00 0.00 0.00 56 1019.4
20260502181938 61 0 0.0 0.0 0.00 0.00 0.00 54 1019.4
20260502181437 61 0 0.0 0.0 0.00 0.00 0.00 54 1019.3
20260502180938 62 0 0.0 0.0 0.00 0.00 0.00 53 1019.3
20260502180438 63 0 0.0 0.0 0.00 0.00 0.00 52 1019.3
20260502170439 68 0 0.0 0.0 0.00 0.00 0.00 46 1019.1
20260502163938 69 0 0.0 0.0 0.00 0.00 0.00 42 1019.3
20260502163437 70 0 0.0 0.0 0.00 0.00 0.00 41 1019.3
20260502162938 70 0 0.0 0.0 0.00 0.00 0.00 40 1019.3
20260502162438 70 0 0.0 0.0 0.00 0.00 0.00 40 1019.3
20260502161938 71 0 0.0 0.0 0.00 0.00 0.00 40 1019.3
20260502161437 71 0 0.0 0.0 0.00 0.00 0.00 41 1019.5
20260502160937 71 0 0.0 0.0 0.00 0.00 0.00 37 1019.5
20260502160438 71 0 0.0 0.0 0.00 0.00 0.00 38 1019.5
20260502151939 72 0 0.0 0.0 0.00 0.00 0.00 34 1019.9
20260502151438 73 0 0.0 0.0 0.00 0.00 0.00 34 1019.9
20260502150938 73 0 0.0 0.0 0.00 0.00 0.00 34 1020.0
20260502130440 75 0 0.0 0.0 0.00 0.00 0.00 38 1021.0
20260502123438 74 0 0.0 0.0 0.00 0.00 0.00 36 1021.4
20260502122939 74 0 0.0 0.0 0.00 0.00 0.00 35 1021.5
20260502122439 74 0 0.0 0.0 0.00 0.00 0.00 38 1021.5
20260502121938 74 0 0.0 0.0 0.00 0.00 0.00 35 1021.6
20260502121438 74 0 0.0 0.0 0.00 0.00 0.00 38 1021.7
20260502120938 73 0 0.0 0.0 0.00 0.00 0.00 36 1021.7
20260502120439 72 0 0.0 0.0 0.00 0.00 0.00 37 1021.8
20260502115439 73 0 0.0 0.0 0.00 0.00 0.00 37 1022.0
20260502114938 72 0 0.0 0.0 0.00 0.00 0.00 36 1022.0
20260502114438 73 0 0.0 0.0 0.00 0.00 0.00 38 1022.1
20260502113439 74 0 0.0 0.0 0.00 0.00 0.00 37 1022.2
20260502112939 74 0 0.0 0.0 0.00 0.00 0.00 36 1022.3
20260502112439 74 0 0.0 0.0 0.00 0.00 0.00 37 1022.3
20260502111939 74 0 0.0 0.0 0.00 0.00 0.00 38 1022.4
20260502111440 72 0 0.0 0.0 0.00 0.00 0.00 38 1022.4
20260502110939 72 0 0.0 0.0 0.00 0.00 0.00 38 1022.4
20260502110439 72 0 0.0 0.0 0.00 0.00 0.00 39 1022.5
20260502105939 73 0 0.0 0.0 0.00 0.00 0.00 41 1022.5
20260502105439 72 0 0.0 0.0 0.00 0.00 0.00 42 1022.6
20260502104940 72 0 0.0 0.0 0.00 0.00 0.00 38 1022.7
20260502104440 73 0 0.0 0.0 0.00 0.00 0.00 38 1022.8
20260502103439 72 0 0.0 0.0 0.00 0.00 0.00 42 1022.7
20260502102939 72 0 0.0 0.0 0.00 0.00 0.00 39 1022.9
20260502102440 72 0 0.0 0.0 0.00 0.00 0.00 39 1022.9
20260502101939 72 0 0.0 0.0 0.00 0.00 0.00 43 1023.0
20260502101439 72 0 0.0 0.0 0.00 0.00 0.00 40 1023.0
20260502100940 72 0 0.0 0.0 0.00 0.00 0.00 41 1023.0
20260502100438 71 0 0.0 0.0 0.00 0.00 0.00 43 1023.0
20260502091440 70 0 0.0 0.0 0.00 0.00 0.00 45 1023.5
20260502090940 70 0 0.0 0.0 0.00 0.00 0.00 45 1023.6
20260502090439 70 0 0.0 0.0 0.00 0.00 0.00 48 1023.7
20260502071440 65 0 0.0 0.0 0.00 0.00 0.00 55 1023.9
20260502070939 64 0 0.0 0.0 0.00 0.00 0.00 62 1024.0
20260502070439 63 0 0.0 0.0 0.00 0.00 0.00 60 1024.0
20260502065940 63 0 0.0 0.0 0.00 0.00 0.00 59 1023.9
20260502064940 62 0 0.0 0.0 0.00 0.00 0.00 63 1024.0
20260502064439 61 0 0.0 0.0 0.00 0.00 0.00 64 1024.0
20260502063941 60 0 0.0 0.0 0.00 0.00 0.00 67 1024.0
20260502062940 59 0 0.0 0.0 0.00 0.00 0.00 67 1024.1
20260502062440 58 0 0.0 0.0 0.00 0.00 0.00 65 1024.0
20260502061939 57 0 0.0 0.0 0.00 0.00 0.00 66 1023.9
20260502060940 56 0 0.0 0.0 0.00 0.00 0.00 69 1024.0
20260502060440 55 0 0.0 0.0 0.00 0.00 0.00 72 1024.0
20260502055940 54 0 0.0 0.0 0.00 0.00 0.00 74 1024.0
20260502055440 52 0 0.0 0.0 0.00 0.00 0.00 77 1024.0
20260502054940 51 0 0.0 0.0 0.00 0.00 0.00 80 1024.0
20260502054439 50 0 0.0 0.0 0.00 0.00 0.00 82 1024.0
20260502053940 49 0 0.0 0.0 0.00 0.00 0.00 85 1024.0
20260502053439 48 0 0.0 0.0 0.00 0.00 0.00 86 1024.0
20260502052940 47 0 0.0 0.0 0.00 0.00 0.00 89 1024.0
20260502052440 46 0 0.0 0.0 0.00 0.00 0.00 90 1024.0
20260502051940 45 0 0.0 0.0 0.00 0.00 0.00 91 1024.0
20260502051440 44 0 0.0 0.0 0.00 0.00 0.00 92 1024.0
20260502050940 43 0 0.0 0.0 0.00 0.00 0.00 92 1024.0
20260502050440 42 0 0.0 0.0 0.00 0.00 0.00 92 1024.0
20260502045440 41 0 0.0 0.0 0.00 0.00 0.00 92 1023.9
20260502044941 40 0 0.0 0.0 0.00 0.00 0.00 92 1023.9
20260502043940 39 0 0.0 0.0 0.00 0.00 0.00 92 1023.9
20260502042940 38 0 0.0 0.0 0.00 0.00 0.00 91 1023.7
20260502042441 38 0 0.0 0.0 0.00 0.00 0.00 91 1023.7
20260502041940 38 0 0.0 0.0 0.00 0.00 0.00 91 1023.6
20260502040940 37 0 0.0 0.0 0.00 0.00 0.00 91 1023.6
20260502035940 37 0 0.0 0.0 0.00 0.00 0.00 91 1023.5
20260502035440 37 0 0.0 0.0 0.00 0.00 0.00 91 1023.5
20260502034940 36 0 0.0 0.0 0.00 0.00 0.00 91 1023.5
20260502034441 36 0 0.0 0.0 0.00 0.00 0.00 91 1023.5
20260502033941 36 0 0.0 0.0 0.00 0.00 0.00 90 1023.6
20260502033440 37 0 0.0 0.0 0.00 0.00 0.00 90 1023.5
20260502032941 37 0 0.0 0.0 0.00 0.00 0.00 91 1023.4
20260502031940 37 0 0.0 0.0 0.00 0.00 0.00 91 1023.4
20260502031440 37 0 0.0 0.0 0.00 0.00 0.00 91 1023.4
20260502030941 37 0 0.0 0.0 0.00 0.00 0.00 90 1023.5
20260502030440 37 0 0.0 0.0 0.00 0.00 0.00 90 1023.5
20260502025440 36 0 0.0 0.0 0.00 0.00 0.00 90 1023.5
20260502024940 36 0 0.0 0.0 0.00 0.00 0.00 90 1023.5
20260502024440 36 0 0.0 0.0 0.00 0.00 0.00 90 1023.6
20260502023940 37 0 0.0 0.0 0.00 0.00 0.00 90 1023.6
20260502023441 37 0 0.0 0.0 0.00 0.00 0.00 90 1023.5
20260502022941 37 0 0.0 0.0 0.00 0.00 0.00 90 1023.4
20260502022440 37 0 0.0 0.0 0.00 0.00 0.00 89 1023.4
20260502021942 37 0 0.0 0.0 0.00 0.00 0.00 89 1023.5
20260502021441 37 0 0.0 0.0 0.00 0.00 0.00 89 1023.4
20260502020940 37 0 0.0 0.0 0.00 0.00 0.00 89 1023.4
20260502020442 38 0 0.0 0.0 0.00 0.00 0.00 89 1023.4
20260502015940 38 0 0.0 0.0 0.00 0.00 0.00 89 1023.4
20260502015441 38 0 0.0 0.0 0.00 0.00 0.00 89 1023.3
20260502014441 38 0 0.0 0.0 0.00 0.00 0.00 89 1023.4
20260502012941 38 0 0.0 0.0 0.00 0.00 0.00 88 1023.5
20260502011440 39 0 0.0 0.0 0.00 0.00 0.00 88 1023.6
20260502010940 39 0 0.0 0.0 0.00 0.00 0.00 88 1023.6
20260502005941 39 0 0.0 0.0 0.00 0.00 0.00 88 1023.6
20260502005441 39 0 0.0 0.0 0.00 0.00 0.00 88 1023.6
20260502004441 40 0 0.0 0.0 0.00 0.00 0.00 88 1023.6
20260502003942 40 0 0.0 0.0 0.00 0.00 0.00 88 1023.7
20260502002940 39 0 0.0 0.0 0.00 0.00 0.00 87 1023.7
20260502002441 39 0 0.0 0.0 0.00 0.00 0.00 87 1023.7
20260502001941 40 0 0.0 0.0 0.00 0.00 0.00 87 1023.7
20260502000941 40 0 0.0 0.0 0.00 0.00 0.00 87 1023.6
20260502000440 40 0 0.0 0.0 0.00 0.00 0.00 87 1023.6
20260501235942 40 0 0.0 0.0 0.00 0.00 0.00 87 1023.6
20260501235441 40 0 0.0 0.0 0.00 0.00 0.00 86 1023.6
20260501234942 40 0 0.0 0.0 0.00 0.00 0.00 86 1023.6
20260501233941 41 0 0.0 0.0 0.00 0.00 0.00 86 1023.5
20260501233441 41 0 0.0 0.0 0.00 0.00 0.00 86 1023.6
20260501232942 41 0 0.0 0.0 0.00 0.00 0.00 85 1023.6
20260501232441 41 0 0.0 0.0 0.00 0.00 0.00 85 1023.6
20260501231941 41 0 0.0 0.0 0.00 0.00 0.00 85 1023.6
20260501231442 41 0 0.0 0.0 0.00 0.00 0.00 85 1023.6
20260501230942 42 0 0.0 0.0 0.00 0.00 0.00 84 1023.7
20260501230441 42 0 0.0 0.0 0.00 0.00 0.00 84 1023.7
20260501225941 42 0 0.0 0.0 0.00 0.00 0.00 84 1023.7
20260501225441 42 0 0.0 0.0 0.00 0.00 0.00 84 1023.8
20260501224941 42 0 0.0 0.0 0.00 0.00 0.00 84 1023.8
20260501224441 42 0 0.0 0.0 0.00 0.00 0.00 83 1023.7
20260501223941 42 0 0.0 0.0 0.00 0.00 0.00 83 1023.7
20260501223441 43 0 0.0 0.0 0.00 0.00 0.00 83 1023.8
20260501222941 43 0 0.0 0.0 0.00 0.00 0.00 82 1023.8
20260501222441 43 0 0.0 0.0 0.00 0.00 0.00 82 1023.8
20260501221942 43 0 0.0 0.0 0.00 0.00 0.00 81 1023.8
20260501221441 44 0 0.0 0.0 0.00 0.00 0.00 81 1023.8
20260501220941 44 0 0.0 0.0 0.00 0.00 0.00 81 1023.8
20260501220441 45 0 0.0 0.0 0.00 0.00 0.00 80 1023.8
20260501215942 45 0 0.0 0.0 0.00 0.00 0.00 80 1023.8
20260501215442 45 0 0.0 0.0 0.00 0.00 0.00 80 1023.8
20260501214442 45 0 0.0 0.0 0.00 0.00 0.00 80 1023.8
20260501213942 45 0 0.0 0.0 0.00 0.00 0.00 79 1023.8
20260501213442 45 0 0.0 0.0 0.00 0.00 0.00 79 1023.8
20260501212941 45 0 0.0 0.0 0.00 0.00 0.00 79 1023.8
20260501212443 46 0 0.0 0.0 0.00 0.00 0.00 78 1023.7
20260501211943 46 0 0.0 0.0 0.00 0.00 0.00 78 1023.7
20260501211443 47 0 0.0 0.0 0.00 0.00 0.00 78 1023.7
20260501210941 47 0 0.0 0.0 0.00 0.00 0.00 77 1023.7
20260501210441 47 0 0.0 0.0 0.00 0.00 0.00 77 1023.6